UAE378 OMDB-VTSP

Flight info

Callsign UAE378
Flight time 5h 52m
Altitude 35000
Route IVURO M428 MUNGA A777 VAXIM P307 PARAR N571 DOGET/N0492F370 N571 BIKEN/N0486F390 N571 RUPTI L645 UBNEN UBNEN1C
Aircraft B77W/H-SDE1E2E3FGHIJ2J3J4J5M1RWXY/LB1D1

Departure

Time 2026-04-25 22:59
Airport Dubai International Airport (OMDB)

Arrival

Time 2026-04-26 04:51
Airport Phuket International Airport (VTSP)
Time Latitude Longitude Altitude Speed Heading
2026-04-25 22:01 25.26258 55.34432 26 ft 0 kts 31°
2026-04-25 22:44 25.26255 55.34430 26 ft 2 kts 31°
2026-04-25 22:44 25.26239 55.34419 31 ft 3 kts 31°
2026-04-25 22:44 25.26221 55.34407 32 ft 3 kts 31°
2026-04-25 22:45 25.26204 55.34396 32 ft 3 kts 31°
2026-04-25 22:45 25.26190 55.34386 32 ft 3 kts 51°
2026-04-25 22:45 25.26184 55.34375 32 ft 3 kts 86°
2026-04-25 22:45 25.26185 55.34361 32 ft 3 kts 117°
2026-04-25 22:46 25.26190 55.34350 32 ft 2 kts 122°
2026-04-25 22:46 25.26200 55.34333 32 ft 3 kts 122°
2026-04-25 22:46 25.26206 55.34322 32 ft 0 kts 122°
2026-04-25 22:49 25.26202 55.34328 32 ft 2 kts 122°
2026-04-25 22:49 25.26195 55.34342 32 ft 5 kts 122°
2026-04-25 22:49 25.26174 55.34380 32 ft 6 kts 122°
2026-04-25 22:50 25.26152 55.34417 29 ft 6 kts 122°
2026-04-25 22:50 25.26130 55.34456 32 ft 6 kts 122°
2026-04-25 22:50 25.26102 55.34506 29 ft 10 kts 122°
2026-04-25 22:50 25.26066 55.34570 29 ft 10 kts 121°
2026-04-25 22:51 25.26030 55.34635 32 ft 10 kts 122°
2026-04-25 22:51 25.25994 55.34700 30 ft 10 kts 122°
2026-04-25 22:51 25.25957 55.34765 31 ft 10 kts 122°
2026-04-25 22:51 25.25920 55.34831 31 ft 10 kts 122°
2026-04-25 22:52 25.25881 55.34901 29 ft 14 kts 122°
2026-04-25 22:52 25.25830 55.34992 31 ft 14 kts 122°
2026-04-25 22:52 25.25780 55.35083 29 ft 14 kts 120°
2026-04-25 22:52 25.25752 55.35148 28 ft 14 kts 102°
2026-04-25 22:53 25.25830 55.35249 31 ft 14 kts 31°
2026-04-25 22:53 25.25913 55.35304 26 ft 14 kts 31°
2026-04-25 22:53 25.25986 55.35377 27 ft 15 kts 57°
2026-04-25 22:53 25.26003 55.35512 28 ft 20 kts 104°
2026-04-25 22:54 25.25931 55.35659 28 ft 23 kts 122°
2026-04-25 22:54 25.25834 55.35831 28 ft 29 kts 122°
2026-04-25 22:54 25.25728 55.36021 28 ft 29 kts 122°
2026-04-25 22:54 25.25622 55.36209 29 ft 29 kts 122°
2026-04-25 22:55 25.25516 55.36399 29 ft 29 kts 122°
2026-04-25 22:55 25.25410 55.36587 29 ft 29 kts 122°
2026-04-25 22:55 25.25303 55.36776 29 ft 29 kts 122°
2026-04-25 22:55 25.25197 55.36965 29 ft 29 kts 122°
2026-04-25 22:56 25.25093 55.37151 30 ft 29 kts 122°
2026-04-25 22:56 25.24987 55.37340 30 ft 29 kts 122°
2026-04-25 22:56 25.24881 55.37528 30 ft 29 kts 122°
2026-04-25 22:56 25.24777 55.37714 30 ft 22 kts 122°
2026-04-25 22:57 25.24713 55.37828 29 ft 16 kts 122°
2026-04-25 22:57 25.24673 55.37909 29 ft 9 kts 104°
2026-04-25 22:57 25.24697 55.37968 30 ft 9 kts 41°
2026-04-25 22:57 25.24749 55.38006 33 ft 9 kts 32°
2026-04-25 22:58 25.24806 55.38020 34 ft 9 kts 334°
2026-04-25 22:58 25.24843 55.37963 35 ft 9 kts 298°
2026-04-25 22:58 25.24980 55.37714 35 ft 88 kts 301°
2026-04-25 22:58 25.25497 55.36783 35 ft 195 kts 302°
2026-04-25 22:59 25.26340 55.35309 578 ft 245 kts 302°
2026-04-25 22:59 25.27349 55.33642 1750 ft 264 kts 305°
2026-04-25 22:59 25.28364 55.32019 3109 ft 256 kts 305°
2026-04-25 22:59 25.29401 55.30452 4124 ft 248 kts 314°
2026-04-25 23:00 25.30912 55.29533 4886 ft 256 kts 348°
2026-04-25 23:00 25.32714 55.29486 5562 ft 264 kts 360°
2026-04-25 23:00 25.34577 55.29547 6330 ft 270 kts 360°
2026-04-25 23:00 25.36466 55.29612 7135 ft 273 kts 359°
2026-04-25 23:01 25.38345 55.29687 7939 ft 274 kts
2026-04-25 23:01 25.40155 55.30409 8586 ft 286 kts 34°
2026-04-25 23:01 25.41549 55.32002 9328 ft 290 kts 50°
2026-04-25 23:01 25.42825 55.33770 10012 ft 298 kts 50°
2026-04-25 23:02 25.44151 55.35607 10529 ft 316 kts 50°
2026-04-25 23:02 25.45586 55.37592 10714 ft 344 kts 50°
2026-04-25 23:02 25.47149 55.39736 10923 ft 371 kts 50°
2026-04-25 23:02 25.48818 55.42029 11312 ft 390 kts 51°
2026-04-25 23:03 25.50502 55.44427 11986 ft 397 kts 52°
2026-04-25 23:03 25.51843 55.47116 12554 ft 406 kts 72°
2026-04-25 23:03 25.52207 55.50207 13390 ft 408 kts 94°
2026-04-25 23:03 25.51676 55.53288 14216 ft 409 kts 110°
2026-04-25 23:04 25.50363 55.56084 14833 ft 411 kts 124°
2026-04-25 23:04 25.49327 55.57840 15175 ft 417 kts 125°
2026-04-25 23:04 25.47174 55.61430 16033 ft 427 kts 124°
2026-04-25 23:04 25.45543 55.64220 16751 ft 432 kts 124°
2026-04-25 23:05 25.43923 55.67048 17445 ft 438 kts 123°
2026-04-25 23:05 25.42415 55.69991 18057 ft 443 kts 113°
2026-04-25 23:05 25.41598 55.73321 18520 ft 452 kts 101°
2026-04-25 23:05 25.41015 55.76752 19146 ft 456 kts 102°
2026-04-25 23:06 25.40350 55.80193 19819 ft 458 kts 103°
2026-04-25 23:06 25.39621 55.83625 20456 ft 462 kts 104°
2026-04-25 23:06 25.38862 55.87100 21062 ft 467 kts 104°
2026-04-25 23:06 25.38101 55.90611 21656 ft 471 kts 104°
2026-04-25 23:07 25.37340 55.94154 22252 ft 475 kts 104°
2026-04-25 23:07 25.36578 55.97723 22847 ft 479 kts 104°
2026-04-25 23:07 25.35810 56.01328 23423 ft 483 kts 104°
2026-04-25 23:07 25.35035 56.04959 23890 ft 487 kts 104°
2026-04-25 23:08 25.34253 56.08618 24360 ft 491 kts 104°
2026-04-25 23:08 25.33465 56.12297 24819 ft 494 kts 104°
2026-04-25 23:08 25.32660 56.16001 25285 ft 497 kts 106°
2026-04-25 23:08 25.31629 56.19665 25736 ft 499 kts 111°
2026-04-25 23:09 25.30404 56.23257 26194 ft 502 kts 113°
2026-04-25 23:09 25.29117 56.26866 26652 ft 505 kts 113°
2026-04-25 23:09 25.27859 56.30504 27110 ft 509 kts 112°
2026-04-25 23:09 25.26640 56.34183 27692 ft 507 kts 112°
2026-04-25 23:10 25.25461 56.37810 28760 ft 496 kts 112°
2026-04-25 23:10 25.24297 56.41373 29513 ft 495 kts 112°
2026-04-25 23:10 25.23108 56.44978 29947 ft 499 kts 112°
2026-04-25 23:10 25.21908 56.48601 30252 ft 505 kts 112°
2026-04-25 23:11 25.20697 56.52260 30578 ft 509 kts 112°
2026-04-25 23:11 25.19480 56.55939 30935 ft 512 kts 112°
2026-04-25 23:11 25.18250 56.59626 31423 ft 509 kts 113°
2026-04-25 23:11 25.16957 56.63209 32376 ft 496 kts 115°
2026-04-25 23:12 25.15657 56.66634 33299 ft 486 kts 115°
2026-04-25 23:12 25.14330 56.70060 33851 ft 485 kts 115°
2026-04-25 23:12 25.13001 56.73484 34207 ft 484 kts 115°
2026-04-25 23:12 25.11692 56.76878 34766 ft 479 kts 115°
2026-04-25 23:13 25.09116 56.83629 34826 ft 474 kts 114°
2026-04-25 23:13 25.06588 56.90301 34806 ft 469 kts 115°
2026-04-25 23:14 25.04076 56.96924 34837 ft 467 kts 114°
2026-04-25 23:14 25.01568 57.03524 34835 ft 466 kts 115°
2026-04-25 23:15 24.99059 57.10114 34839 ft 466 kts 114°
2026-04-25 23:15 24.96543 57.16708 34842 ft 467 kts 114°
2026-04-25 23:16 24.94019 57.23317 34842 ft 468 kts 114°
2026-04-25 23:16 24.91486 57.29937 34844 ft 469 kts 114°
2026-04-25 23:17 24.88940 57.36583 34840 ft 470 kts 114°
2026-04-25 23:17 24.86396 57.43213 34839 ft 470 kts 114°
2026-04-25 23:18 24.83850 57.49837 34836 ft 469 kts 114°
2026-04-25 23:18 24.81308 57.56440 34835 ft 468 kts 114°
2026-04-25 23:19 24.79197 57.61918 34831 ft 467 kts 114°
2026-04-25 23:19 24.76247 57.69559 34833 ft 466 kts 114°
2026-04-25 23:20 24.74139 57.75014 34838 ft 466 kts 114°
2026-04-25 23:20 24.71798 57.81660 34841 ft 466 kts 110°
2026-04-25 23:21 24.69708 57.88413 34836 ft 467 kts 109°
2026-04-25 23:21 24.67579 57.95327 34851 ft 487 kts 109°
2026-04-25 23:22 24.65343 58.02501 34853 ft 506 kts 109°
2026-04-25 23:23 24.61852 58.13612 34825 ft 509 kts 109°
2026-04-25 23:23 24.59557 58.20899 34826 ft 502 kts 110°
2026-04-25 23:24 24.57268 58.28153 34828 ft 502 kts 110°
2026-04-25 23:24 24.54977 58.35401 34829 ft 502 kts 110°
2026-04-25 23:25 24.52683 58.42645 34831 ft 502 kts 110°
2026-04-25 23:25 24.50381 58.49903 34828 ft 502 kts 110°
2026-04-25 23:26 24.48078 58.57149 34832 ft 502 kts 110°
2026-04-25 23:26 24.45778 58.64374 34823 ft 502 kts 110°
2026-04-25 23:27 24.43461 58.71638 34827 ft 502 kts 110°
2026-04-25 23:27 24.40927 58.78768 34831 ft 501 kts 116°
2026-04-25 23:28 24.37868 58.85602 34824 ft 501 kts 117°
2026-04-25 23:28 24.34765 58.92446 34829 ft 501 kts 117°
2026-04-25 23:29 24.31684 58.99321 34827 ft 502 kts 117°
2026-04-25 23:29 24.28610 59.06221 34809 ft 503 kts 116°
2026-04-25 23:30 24.25536 59.13119 34832 ft 504 kts 116°
2026-04-25 23:30 24.22450 59.20024 34833 ft 506 kts 116°
2026-04-25 23:31 24.19341 59.26969 34828 ft 506 kts 116°
2026-04-25 23:31 24.16236 59.33895 34831 ft 506 kts 116°
2026-04-25 23:32 24.13127 59.40819 34829 ft 505 kts 116°
2026-04-25 23:32 24.10029 59.47713 34827 ft 504 kts 116°
2026-04-25 23:33 24.06922 59.54604 34824 ft 503 kts 116°
2026-04-25 23:33 24.03840 59.61417 34826 ft 502 kts 116°
2026-04-25 23:34 24.00742 59.68256 34829 ft 501 kts 116°
2026-04-25 23:34 23.97648 59.75082 34830 ft 501 kts 116°
2026-04-25 23:35 23.94550 59.81906 34826 ft 500 kts 116°
2026-04-25 23:35 23.91454 59.88717 34833 ft 500 kts 116°
2026-04-25 23:36 23.88353 59.95530 34832 ft 501 kts 116°
2026-04-25 23:36 23.85245 60.02346 34832 ft 501 kts 116°
2026-04-25 23:37 23.82152 60.09121 34832 ft 501 kts 116°
2026-04-25 23:37 23.79034 60.15941 34828 ft 501 kts 116°
2026-04-25 23:38 23.75916 60.22751 34833 ft 501 kts 116°
2026-04-25 23:38 23.72794 60.29560 34833 ft 501 kts 116°
2026-04-25 23:39 23.69670 60.36362 34832 ft 501 kts 116°
2026-04-25 23:39 23.66565 60.43115 34831 ft 500 kts 116°
2026-04-25 23:40 23.63444 60.49892 34831 ft 500 kts 116°
2026-04-25 23:40 23.60320 60.56667 34832 ft 500 kts 116°
2026-04-25 23:41 23.57195 60.63434 34833 ft 499 kts 116°
2026-04-25 23:41 23.54074 60.70183 34832 ft 498 kts 116°
2026-04-25 23:42 23.50951 60.76928 34833 ft 498 kts 115°
2026-04-25 23:42 23.47829 60.83659 34832 ft 498 kts 116°
2026-04-25 23:43 23.44702 60.90394 34837 ft 497 kts 115°
2026-04-25 23:43 23.41573 60.97122 34838 ft 497 kts 115°
2026-04-25 23:44 23.38446 61.03839 34835 ft 497 kts 115°
2026-04-25 23:44 23.35318 61.10548 34835 ft 497 kts 115°
2026-04-25 23:45 23.32188 61.17254 34838 ft 497 kts 115°
2026-04-25 23:45 23.29141 61.23942 34839 ft 496 kts 114°
2026-04-25 23:46 23.26159 61.30701 34838 ft 495 kts 114°
2026-04-25 23:46 23.23175 61.37446 34838 ft 495 kts 114°
2026-04-25 23:47 23.20176 61.44176 34841 ft 494 kts 114°
2026-04-25 23:47 23.17176 61.50888 34838 ft 493 kts 114°
2026-04-25 23:48 23.14179 61.57584 34840 ft 492 kts 115°
2026-04-25 23:48 23.11189 61.64259 34840 ft 491 kts 115°
2026-04-25 23:49 23.08200 61.70924 34842 ft 490 kts 115°
2026-04-25 23:49 23.05214 61.77573 34842 ft 489 kts 114°
2026-04-25 23:50 23.02234 61.84204 34844 ft 488 kts 114°
2026-04-25 23:50 22.99258 61.90822 34844 ft 488 kts 114°
2026-04-25 23:51 22.96297 61.97401 34840 ft 487 kts 114°
2026-04-25 23:51 22.93321 62.04000 34841 ft 487 kts 114°
2026-04-25 23:52 22.90340 62.10604 34843 ft 487 kts 114°
2026-04-25 23:52 22.87357 62.17203 34840 ft 487 kts 114°
2026-04-25 23:53 22.84374 62.23792 34839 ft 487 kts 114°
2026-04-25 23:53 22.81388 62.30380 34842 ft 487 kts 114°
2026-04-25 23:54 22.78399 62.36964 34841 ft 486 kts 115°
2026-04-25 23:54 22.75410 62.43541 34845 ft 486 kts 115°
2026-04-25 23:55 22.72442 62.50063 34848 ft 486 kts 115°
2026-04-25 23:55 22.69452 62.56624 34848 ft 485 kts 115°
2026-04-25 23:56 22.66461 62.63178 34848 ft 485 kts 115°
2026-04-25 23:56 22.63471 62.69722 34852 ft 484 kts 115°
2026-04-25 23:57 22.60488 62.76242 34850 ft 483 kts 115°
2026-04-25 23:57 22.57504 62.82755 34850 ft 483 kts 115°
2026-04-25 23:58 22.54518 62.89265 34852 ft 482 kts 115°
2026-04-25 23:58 22.51557 62.95711 34854 ft 482 kts 115°
2026-04-25 23:59 22.48572 63.02204 34854 ft 481 kts 115°
2026-04-25 23:59 22.45582 63.08698 34853 ft 481 kts 115°
2026-04-26 00:00 22.42621 63.15168 34852 ft 480 kts 115°
2026-04-26 00:00 22.40212 63.20557 34853 ft 479 kts 114°
2026-04-26 00:01 22.37324 63.27048 34853 ft 479 kts 114°
2026-04-26 00:01 22.34432 63.33523 34854 ft 479 kts 114°
2026-04-26 00:02 22.31531 63.39995 34850 ft 479 kts 115°
2026-04-26 00:02 22.28617 63.46481 34854 ft 478 kts 115°
2026-04-26 00:03 22.25708 63.52948 34853 ft 479 kts 115°
2026-04-26 00:03 22.22795 63.59417 34852 ft 479 kts 115°
2026-04-26 00:04 22.19883 63.65875 34857 ft 479 kts 115°
2026-04-26 00:04 22.16973 63.72320 34857 ft 479 kts 115°
2026-04-26 00:05 22.14067 63.78749 34858 ft 479 kts 115°
2026-04-26 00:05 22.11143 63.85210 34855 ft 479 kts 115°
2026-04-26 00:06 22.08218 63.91663 34854 ft 479 kts 115°
2026-04-26 00:06 22.05293 63.98110 34854 ft 479 kts 115°
2026-04-26 00:07 22.02385 64.04510 34856 ft 478 kts 115°
2026-04-26 00:07 21.99454 64.10952 34858 ft 478 kts 115°
2026-04-26 00:08 21.96522 64.17388 34858 ft 478 kts 115°
2026-04-26 00:08 21.93591 64.23815 34858 ft 478 kts 115°
2026-04-26 00:09 21.90656 64.30241 34856 ft 478 kts 115°
2026-04-26 00:09 21.87719 64.36664 34860 ft 478 kts 115°
2026-04-26 00:10 21.84782 64.43080 34857 ft 477 kts 115°
2026-04-26 00:10 21.81863 64.49447 34857 ft 477 kts 115°
2026-04-26 00:11 21.78921 64.55856 34859 ft 477 kts 115°
2026-04-26 00:11 21.75985 64.62246 34857 ft 476 kts 115°
2026-04-26 00:12 21.73044 64.68638 34856 ft 476 kts 115°
2026-04-26 00:12 21.70105 64.75017 34859 ft 476 kts 115°
2026-04-26 00:13 21.67167 64.81388 34858 ft 475 kts 115°
2026-04-26 00:13 21.64243 64.87719 34857 ft 475 kts 115°
2026-04-26 00:14 21.61297 64.94090 34857 ft 475 kts 115°
2026-04-26 00:14 21.58354 65.00447 34857 ft 475 kts 115°
2026-04-26 00:15 21.55403 65.06813 34857 ft 476 kts 115°
2026-04-26 00:15 21.52453 65.13170 34857 ft 476 kts 115°
2026-04-26 00:16 21.49494 65.19537 34856 ft 475 kts 115°
2026-04-26 00:16 21.46559 65.25847 34857 ft 475 kts 115°
2026-04-26 00:17 21.43602 65.32195 34859 ft 475 kts 115°
2026-04-26 00:17 21.40649 65.38527 34854 ft 474 kts 115°
2026-04-26 00:18 21.37695 65.44853 34858 ft 473 kts 115°
2026-04-26 00:18 21.34747 65.51161 34862 ft 473 kts 115°
2026-04-26 00:19 21.31793 65.57472 34860 ft 472 kts 115°
2026-04-26 00:19 21.28868 65.63714 34859 ft 471 kts 115°
2026-04-26 00:20 21.25923 65.69991 34855 ft 471 kts 115°
2026-04-26 00:20 21.22982 65.76254 34862 ft 470 kts 116°
2026-04-26 00:21 21.20041 65.82507 34862 ft 470 kts 116°
2026-04-26 00:21 21.17101 65.88754 34865 ft 469 kts 116°
2026-04-26 00:22 21.14159 65.94997 34860 ft 468 kts 116°
2026-04-26 00:22 21.11207 66.01264 34874 ft 476 kts 115°
2026-04-26 00:23 21.08302 66.07619 34902 ft 480 kts 115°
2026-04-26 00:23 21.06849 66.10840 35131 ft 481 kts 115°
2026-04-26 00:23 21.05395 66.14062 35408 ft 481 kts 115°
2026-04-26 00:23 21.03933 66.17295 35642 ft 483 kts 115°
2026-04-26 00:24 21.02464 66.20534 35836 ft 485 kts 115°
2026-04-26 00:24 21.00987 66.23784 36024 ft 487 kts 115°
2026-04-26 00:24 20.99499 66.27051 36256 ft 487 kts 115°
2026-04-26 00:24 20.98016 66.30303 36557 ft 486 kts 115°
2026-04-26 00:25 20.96532 66.33555 36788 ft 487 kts 115°
2026-04-26 00:25 20.93532 66.40124 36867 ft 493 kts 115°
2026-04-26 00:26 20.90523 66.46704 36844 ft 486 kts 115°
2026-04-26 00:26 20.87597 66.53094 36848 ft 472 kts 115°
2026-04-26 00:27 20.84702 66.59411 36865 ft 473 kts 115°
2026-04-26 00:27 20.81797 66.65746 36870 ft 481 kts 115°
2026-04-26 00:28 20.78837 66.72192 36865 ft 484 kts 115°
2026-04-26 00:28 20.75843 66.78701 36870 ft 489 kts 115°
2026-04-26 00:29 20.72821 66.85262 36867 ft 493 kts 115°
2026-04-26 00:29 20.69810 66.91794 36869 ft 494 kts 115°
2026-04-26 00:30 20.66774 66.98371 36857 ft 493 kts 115°
2026-04-26 00:30 20.63743 67.04927 36853 ft 491 kts 115°
2026-04-26 00:31 20.60723 67.11453 36855 ft 489 kts 115°
2026-04-26 00:31 20.57710 67.17956 36873 ft 488 kts 115°
2026-04-26 00:32 20.54722 67.24400 36868 ft 487 kts 115°
2026-04-26 00:32 20.50204 67.34127 36870 ft 487 kts 115°
2026-04-26 00:33 20.47186 67.40614 36871 ft 488 kts 116°
2026-04-26 00:33 20.44160 67.47110 36852 ft 489 kts 116°
2026-04-26 00:34 20.41124 67.53620 36861 ft 491 kts 116°
2026-04-26 00:34 20.38080 67.60141 36871 ft 492 kts 116°
2026-04-26 00:35 20.35048 67.66626 36863 ft 493 kts 116°
2026-04-26 00:35 20.31988 67.73165 36856 ft 494 kts 116°
2026-04-26 00:36 20.28920 67.79712 36855 ft 494 kts 116°
2026-04-26 00:36 20.25845 67.86266 36868 ft 495 kts 116°
2026-04-26 00:37 20.22763 67.92829 36847 ft 495 kts 116°
2026-04-26 00:37 20.19675 67.99396 36853 ft 495 kts 116°
2026-04-26 00:38 20.16586 68.05957 36868 ft 495 kts 116°
2026-04-26 00:38 20.13492 68.12521 36853 ft 495 kts 116°
2026-04-26 00:39 20.10404 68.19066 36849 ft 495 kts 116°
2026-04-26 00:39 20.07329 68.25574 36865 ft 495 kts 116°
2026-04-26 00:40 20.04236 68.32113 36851 ft 495 kts 116°
2026-04-26 00:40 20.01138 68.38654 36847 ft 495 kts 116°
2026-04-26 00:41 19.98039 68.45191 36864 ft 495 kts 117°
2026-04-26 00:41 19.94933 68.51734 36860 ft 495 kts 117°
2026-04-26 00:42 19.91828 68.58268 36843 ft 496 kts 117°
2026-04-26 00:42 19.88715 68.64812 36857 ft 496 kts 117°
2026-04-26 00:43 19.85600 68.71351 36857 ft 497 kts 117°
2026-04-26 00:43 19.82476 68.77903 36856 ft 497 kts 117°
2026-04-26 00:44 19.79347 68.84457 36839 ft 498 kts 117°
2026-04-26 00:44 19.76211 68.91017 36852 ft 498 kts 117°
2026-04-26 00:45 19.73609 68.96456 36855 ft 498 kts 117°
2026-04-26 00:45 19.69946 69.04104 36857 ft 497 kts 117°
2026-04-26 00:46 19.66815 69.10633 36850 ft 496 kts 117°
2026-04-26 00:46 19.63684 69.17153 36852 ft 495 kts 117°
2026-04-26 00:47 19.60558 69.23658 36849 ft 495 kts 118°
2026-04-26 00:47 19.57447 69.30124 36847 ft 495 kts 118°
2026-04-26 00:48 19.54324 69.36626 36847 ft 495 kts 117°
2026-04-26 00:48 19.51803 69.42080 36849 ft 495 kts 117°
2026-04-26 00:49 19.48819 69.48657 36848 ft 495 kts 117°
2026-04-26 00:49 19.45823 69.55237 36848 ft 496 kts 117°
2026-04-26 00:50 19.42808 69.61817 36847 ft 496 kts 117°
2026-04-26 00:50 19.39785 69.68393 36843 ft 497 kts 117°
2026-04-26 00:51 19.36753 69.74980 36841 ft 497 kts 117°
2026-04-26 00:51 19.33717 69.81568 36842 ft 498 kts 118°
2026-04-26 00:52 19.30692 69.88128 36839 ft 498 kts 118°
2026-04-26 00:52 19.27649 69.94720 36841 ft 499 kts 118°
2026-04-26 00:53 19.24601 70.01314 36841 ft 499 kts 118°
2026-04-26 00:53 19.21548 70.07911 36841 ft 499 kts 118°
2026-04-26 00:54 19.18491 70.14508 36838 ft 499 kts 119°
2026-04-26 00:54 19.15431 70.21105 36840 ft 499 kts 119°
2026-04-26 00:55 19.12365 70.27708 36840 ft 500 kts 119°
2026-04-26 00:55 19.09303 70.34296 36839 ft 500 kts 119°
2026-04-26 00:56 19.06229 70.40900 36839 ft 500 kts 119°
2026-04-26 00:56 19.03176 70.47453 36838 ft 500 kts 120°
2026-04-26 00:57 19.00096 70.54055 36837 ft 500 kts 120°
2026-04-26 00:57 18.97022 70.60638 36835 ft 500 kts 120°
2026-04-26 00:58 18.93941 70.67228 36838 ft 500 kts 120°
2026-04-26 00:58 18.90855 70.73820 36837 ft 500 kts 120°
2026-04-26 00:59 18.87770 70.80404 36841 ft 501 kts 120°
2026-04-26 00:59 18.84679 70.86992 36839 ft 501 kts 120°
2026-04-26 01:00 18.81587 70.93578 36846 ft 501 kts 120°
2026-04-26 01:00 18.78504 71.00135 36847 ft 501 kts 120°
2026-04-26 01:01 18.75403 71.06723 36854 ft 501 kts 121°
2026-04-26 01:01 18.72300 71.13308 36854 ft 501 kts 121°
2026-04-26 01:02 18.69189 71.19904 36857 ft 502 kts 121°
2026-04-26 01:02 18.66076 71.26495 36849 ft 502 kts 121°
2026-04-26 01:03 18.62963 71.33080 36857 ft 502 kts 121°
2026-04-26 01:03 18.59841 71.39676 36855 ft 502 kts 121°
2026-04-26 01:04 18.56720 71.46264 36849 ft 502 kts 121°
2026-04-26 01:04 18.53596 71.52850 36856 ft 502 kts 121°
2026-04-26 01:05 18.50486 71.59398 36855 ft 502 kts 121°
2026-04-26 01:05 18.47359 71.65977 36850 ft 502 kts 121°
2026-04-26 01:06 18.44228 71.72556 36849 ft 502 kts 121°
2026-04-26 01:06 18.41093 71.79137 36850 ft 502 kts 121°
2026-04-26 01:07 18.37960 71.85707 36846 ft 502 kts 121°
2026-04-26 01:07 18.34819 71.92286 36847 ft 502 kts 121°
2026-04-26 01:08 18.31680 71.98853 36845 ft 502 kts 122°
2026-04-26 01:08 18.28537 72.05423 36844 ft 502 kts 122°
2026-04-26 01:09 18.25396 72.11980 36839 ft 502 kts 122°
2026-04-26 01:09 18.22252 72.18537 36840 ft 502 kts 122°
2026-04-26 01:10 18.19109 72.25085 36843 ft 501 kts 122°
2026-04-26 01:10 18.15964 72.31630 36843 ft 501 kts 122°
2026-04-26 01:11 18.12841 72.38123 36846 ft 500 kts 122°
2026-04-26 01:11 18.09701 72.44644 36848 ft 500 kts 122°
2026-04-26 01:12 18.06556 72.51168 36853 ft 499 kts 122°
2026-04-26 01:12 18.03416 72.57674 36853 ft 499 kts 122°
2026-04-26 01:13 18.00275 72.64176 36847 ft 499 kts 122°
2026-04-26 01:13 17.97132 72.70676 36851 ft 499 kts 123°
2026-04-26 01:14 17.94010 72.77125 36849 ft 498 kts 123°
2026-04-26 01:14 17.90865 72.83615 36849 ft 498 kts 123°
2026-04-26 01:15 17.87719 72.90102 36846 ft 498 kts 123°
2026-04-26 01:15 17.84570 72.96586 36846 ft 498 kts 123°
2026-04-26 01:16 17.81417 73.03073 36848 ft 498 kts 123°
2026-04-26 01:16 17.78263 73.09557 36850 ft 498 kts 123°
2026-04-26 01:17 17.75132 73.15988 36858 ft 499 kts 123°
2026-04-26 01:17 17.71974 73.22465 36849 ft 499 kts 123°
2026-04-26 01:18 17.68804 73.28945 36867 ft 498 kts 123°
2026-04-26 01:18 17.65634 73.35416 36851 ft 498 kts 123°
2026-04-26 01:19 17.62470 73.41871 36873 ft 498 kts 123°
2026-04-26 01:19 17.59299 73.48331 36875 ft 498 kts 123°
2026-04-26 01:20 17.56127 73.54789 36878 ft 498 kts 123°
2026-04-26 01:20 17.52953 73.61248 36893 ft 498 kts 123°
2026-04-26 01:21 17.49807 73.67641 36902 ft 495 kts 123°
2026-04-26 01:21 17.46675 73.74010 36897 ft 488 kts 123°
2026-04-26 01:22 17.43557 73.80330 36910 ft 489 kts 123°
2026-04-26 01:22 17.40423 73.86672 36909 ft 491 kts 123°
2026-04-26 01:23 17.37285 73.93024 36918 ft 491 kts 123°
2026-04-26 01:23 17.34138 73.99390 36922 ft 492 kts 123°
2026-04-26 01:24 17.30984 74.05762 36910 ft 493 kts 123°
2026-04-26 01:24 17.27853 74.12083 36918 ft 492 kts 123°
2026-04-26 01:25 17.24700 74.18444 36909 ft 492 kts 123°
2026-04-26 01:25 17.21547 74.24796 36910 ft 491 kts 123°
2026-04-26 01:26 17.18397 74.31143 36907 ft 492 kts 123°
2026-04-26 01:26 17.15248 74.37494 36901 ft 492 kts 123°
2026-04-26 01:27 17.12098 74.43846 36905 ft 492 kts 123°
2026-04-26 01:27 17.08962 74.50160 36903 ft 492 kts 123°
2026-04-26 01:28 17.05803 74.56516 36893 ft 493 kts 123°
2026-04-26 01:28 17.02638 74.62877 36896 ft 493 kts 123°
2026-04-26 01:29 16.99468 74.69241 36897 ft 494 kts 123°
2026-04-26 01:29 16.96296 74.75603 36895 ft 494 kts 123°
2026-04-26 01:30 16.93117 74.81974 36889 ft 494 kts 123°
2026-04-26 01:30 16.89959 74.88296 36887 ft 494 kts 123°
2026-04-26 01:31 16.86780 74.94656 36886 ft 494 kts 123°
2026-04-26 01:31 16.83599 75.01011 36887 ft 494 kts 123°
2026-04-26 01:32 16.80418 75.07362 36883 ft 494 kts 123°
2026-04-26 01:32 16.77233 75.13714 36883 ft 493 kts 123°
2026-04-26 01:33 16.74049 75.20059 36898 ft 493 kts 123°
2026-04-26 01:33 16.70865 75.26397 36885 ft 493 kts 123°
2026-04-26 01:34 16.67683 75.32726 36895 ft 492 kts 123°
2026-04-26 01:34 16.64501 75.39051 36896 ft 492 kts 123°
2026-04-26 01:35 16.61859 75.44298 36898 ft 491 kts 123°
2026-04-26 01:35 16.58742 75.50642 36893 ft 492 kts 121°
2026-04-26 01:36 16.55781 75.57090 36892 ft 492 kts 121°
2026-04-26 01:37 16.51349 75.66742 36896 ft 492 kts 121°
2026-04-26 01:37 16.48388 75.73114 36891 ft 491 kts 121°
2026-04-26 01:38 16.45401 75.79525 36894 ft 491 kts 121°
2026-04-26 01:38 16.42413 75.85936 36894 ft 491 kts 121°
2026-04-26 01:39 16.39440 75.92312 36888 ft 491 kts 121°
2026-04-26 01:39 16.36454 75.98711 36890 ft 491 kts 121°
2026-04-26 01:40 16.33448 76.05121 36891 ft 492 kts 121°
2026-04-26 01:40 16.30434 76.11514 36891 ft 492 kts 121°
2026-04-26 01:41 16.27418 76.17905 36890 ft 492 kts 121°
2026-04-26 01:41 16.24425 76.24251 36890 ft 492 kts 121°
2026-04-26 01:42 16.21408 76.30642 36890 ft 492 kts 121°
2026-04-26 01:42 16.18393 76.37025 36881 ft 492 kts 121°
2026-04-26 01:43 16.15374 76.43408 36887 ft 491 kts 121°
2026-04-26 01:43 16.12355 76.49787 36892 ft 491 kts 121°
2026-04-26 01:44 16.09334 76.56160 36883 ft 491 kts 121°
2026-04-26 01:44 16.06331 76.62493 36891 ft 490 kts 121°
2026-04-26 01:45 16.03313 76.68850 36886 ft 490 kts 121°
2026-04-26 01:45 16.00292 76.75209 36892 ft 490 kts 121°
2026-04-26 01:46 15.97272 76.81559 36887 ft 490 kts 121°
2026-04-26 01:46 15.94246 76.87918 36885 ft 490 kts 121°
2026-04-26 01:47 15.91218 76.94271 36888 ft 490 kts 121°
2026-04-26 01:47 15.88191 77.00620 36886 ft 490 kts 121°
2026-04-26 01:48 15.85162 77.06965 36888 ft 490 kts 121°
2026-04-26 01:48 15.82135 77.13302 36891 ft 490 kts 121°
2026-04-26 01:49 15.79105 77.19639 36896 ft 490 kts 121°
2026-04-26 01:49 15.76093 77.25935 36895 ft 489 kts 121°
2026-04-26 01:50 15.73059 77.32271 36895 ft 489 kts 121°
2026-04-26 01:50 15.70032 77.38595 36901 ft 490 kts 121°
2026-04-26 01:51 15.67004 77.44946 36908 ft 490 kts 121°
2026-04-26 01:51 15.63981 77.51288 36910 ft 490 kts 121°
2026-04-26 01:52 15.60974 77.57589 36914 ft 491 kts 121°
2026-04-26 01:52 15.57940 77.63939 36921 ft 491 kts 121°
2026-04-26 01:53 15.54899 77.70295 36920 ft 492 kts 121°
2026-04-26 01:53 15.51854 77.76657 36923 ft 493 kts 121°
2026-04-26 01:54 15.48798 77.83035 36925 ft 493 kts 121°
2026-04-26 01:54 15.45741 77.89410 36931 ft 494 kts 121°
2026-04-26 01:55 15.42683 77.95782 36932 ft 494 kts 121°
2026-04-26 01:55 15.39618 78.02164 36937 ft 494 kts 121°
2026-04-26 01:56 15.36554 78.08537 36929 ft 494 kts 121°
2026-04-26 01:56 15.33490 78.14863 36927 ft 494 kts 121°
2026-04-26 01:57 15.30379 78.21216 36926 ft 494 kts 121°
2026-04-26 01:57 15.27267 78.27566 36917 ft 494 kts 121°
2026-04-26 01:58 15.24158 78.33914 36919 ft 494 kts 121°
2026-04-26 01:58 15.21045 78.40271 36909 ft 494 kts 121°
2026-04-26 01:59 15.17937 78.46615 36909 ft 494 kts 121°
2026-04-26 01:59 15.14828 78.52953 36917 ft 493 kts 121°
2026-04-26 02:00 15.11736 78.59250 36903 ft 493 kts 121°
2026-04-26 02:00 15.08625 78.65581 36900 ft 493 kts 121°
2026-04-26 02:01 15.05513 78.71911 36909 ft 493 kts 121°
2026-04-26 02:01 15.02397 78.78239 36906 ft 493 kts 120°
2026-04-26 02:02 14.99284 78.84560 36901 ft 493 kts 121°
2026-04-26 02:02 14.96168 78.90878 36900 ft 492 kts 121°
2026-04-26 02:03 14.93058 78.97182 36896 ft 491 kts 121°
2026-04-26 02:03 14.89972 79.03430 36895 ft 491 kts 121°
2026-04-26 02:04 14.86864 79.09718 36887 ft 491 kts 121°
2026-04-26 02:04 14.83759 79.15993 36880 ft 490 kts 121°
2026-04-26 02:05 14.80650 79.22271 36885 ft 490 kts 121°
2026-04-26 02:05 14.77545 79.28539 36880 ft 490 kts 120°
2026-04-26 02:06 14.74439 79.34801 36878 ft 489 kts 120°
2026-04-26 02:06 14.71333 79.41058 36875 ft 489 kts 120°
2026-04-26 02:07 14.68246 79.47271 36875 ft 489 kts 120°
2026-04-26 02:07 14.65140 79.53519 36876 ft 489 kts 120°
2026-04-26 02:08 14.62031 79.59768 36873 ft 489 kts 120°
2026-04-26 02:08 14.58914 79.66026 36870 ft 490 kts 121°
2026-04-26 02:09 14.55800 79.72273 36871 ft 490 kts 121°
2026-04-26 02:09 14.52680 79.78529 36867 ft 490 kts 121°
2026-04-26 02:10 14.49558 79.84782 36869 ft 490 kts 121°
2026-04-26 02:10 14.46430 79.91044 36868 ft 490 kts 121°
2026-04-26 02:11 14.43321 79.97261 36867 ft 491 kts 121°
2026-04-26 02:11 14.40189 80.03520 36868 ft 491 kts 121°
2026-04-26 02:12 14.37054 80.09778 36869 ft 491 kts 121°
2026-04-26 02:12 14.33915 80.16041 36867 ft 491 kts 121°
2026-04-26 02:13 14.30775 80.22301 36870 ft 491 kts 121°
2026-04-26 02:13 14.27636 80.28554 36866 ft 491 kts 121°
2026-04-26 02:14 14.24492 80.34811 36875 ft 491 kts 121°
2026-04-26 02:14 14.21353 80.41054 36871 ft 491 kts 121°
2026-04-26 02:15 14.18231 80.47259 36876 ft 490 kts 120°
2026-04-26 02:15 14.15091 80.53493 36876 ft 490 kts 120°
2026-04-26 02:16 14.11948 80.59729 36878 ft 490 kts 120°
2026-04-26 02:16 14.08807 80.65957 36880 ft 490 kts 120°
2026-04-26 02:17 14.05664 80.72184 36883 ft 489 kts 120°
2026-04-26 02:17 14.02523 80.78403 36887 ft 489 kts 120°
2026-04-26 02:18 13.99384 80.84625 36889 ft 489 kts 120°
2026-04-26 02:18 13.96346 80.90854 36892 ft 490 kts 119°
2026-04-26 02:19 13.93321 80.97129 36893 ft 489 kts 119°
2026-04-26 02:19 13.90279 81.03408 36895 ft 489 kts 120°
2026-04-26 02:20 13.87232 81.09672 36892 ft 489 kts 120°
2026-04-26 02:20 13.84182 81.15934 36896 ft 489 kts 120°
2026-04-26 02:21 13.81134 81.22188 36900 ft 489 kts 120°
2026-04-26 02:21 13.78098 81.28413 36894 ft 489 kts 120°
2026-04-26 02:22 13.75047 81.34665 36899 ft 489 kts 120°
2026-04-26 02:22 13.72509 81.39862 36899 ft 489 kts 120°
2026-04-26 02:23 13.69455 81.46113 36897 ft 489 kts 120°
2026-04-26 02:23 13.66401 81.52364 36901 ft 489 kts 120°
2026-04-26 02:24 13.63351 81.58611 36902 ft 489 kts 120°
2026-04-26 02:24 13.60298 81.64860 36903 ft 489 kts 120°
2026-04-26 02:25 13.57245 81.71105 36906 ft 489 kts 119°
2026-04-26 02:25 13.54213 81.77302 36902 ft 489 kts 119°
2026-04-26 02:26 13.51159 81.83538 36901 ft 488 kts 119°
2026-04-26 02:26 13.48104 81.89772 36901 ft 488 kts 119°
2026-04-26 02:27 13.45042 81.96015 36902 ft 488 kts 119°
2026-04-26 02:27 13.41989 82.02236 36906 ft 488 kts 119°
2026-04-26 02:28 13.38934 82.08454 36903 ft 488 kts 119°
2026-04-26 02:28 13.35874 82.14679 36902 ft 488 kts 119°
2026-04-26 02:29 13.32813 82.20902 36906 ft 488 kts 119°
2026-04-26 02:29 13.29769 82.27085 36901 ft 487 kts 119°
2026-04-26 02:30 13.26712 82.33290 36903 ft 487 kts 119°
2026-04-26 02:30 13.23647 82.39505 36907 ft 487 kts 119°
2026-04-26 02:31 13.20584 82.45715 36905 ft 487 kts 119°
2026-04-26 02:31 13.17521 82.51918 36904 ft 487 kts 119°
2026-04-26 02:32 13.14471 82.58090 36906 ft 487 kts 119°
2026-04-26 02:32 13.11404 82.64292 36904 ft 487 kts 119°
2026-04-26 02:33 13.08326 82.70512 36906 ft 488 kts 119°
2026-04-26 02:33 13.05255 82.76713 36910 ft 488 kts 119°
2026-04-26 02:34 13.02179 82.82921 36905 ft 488 kts 119°
2026-04-26 02:34 12.99119 82.89090 36908 ft 488 kts 119°
2026-04-26 02:35 12.96036 82.95302 36908 ft 489 kts 119°
2026-04-26 02:35 12.92948 83.01520 36907 ft 489 kts 119°
2026-04-26 02:36 12.89858 83.07738 36906 ft 489 kts 119°
2026-04-26 02:36 12.86766 83.13954 36908 ft 489 kts 119°
2026-04-26 02:37 12.83673 83.20169 36909 ft 490 kts 120°
2026-04-26 02:37 12.80576 83.26386 36912 ft 490 kts 119°
2026-04-26 02:38 12.77477 83.32604 36914 ft 490 kts 119°
2026-04-26 02:38 12.74379 83.38817 36911 ft 490 kts 119°
2026-04-26 02:39 12.71278 83.45031 36912 ft 490 kts 119°
2026-04-26 02:39 12.68177 83.51242 36911 ft 489 kts 119°
2026-04-26 02:40 12.65107 83.57403 36909 ft 489 kts 118°
2026-04-26 02:40 12.62091 83.63650 36910 ft 489 kts 118°
2026-04-26 02:41 12.59107 83.69901 36911 ft 488 kts 118°
2026-04-26 02:41 12.56116 83.76144 36915 ft 488 kts 118°
2026-04-26 02:42 12.53118 83.82378 36914 ft 488 kts 118°
2026-04-26 02:42 12.50137 83.88563 36916 ft 487 kts 118°
2026-04-26 02:43 12.45639 83.97887 36914 ft 487 kts 118°
2026-04-26 02:43 12.42642 84.04097 36916 ft 486 kts 118°
2026-04-26 02:44 12.39647 84.10297 36916 ft 486 kts 118°
2026-04-26 02:44 12.36669 84.16457 36918 ft 485 kts 118°
2026-04-26 02:45 12.33675 84.22648 36919 ft 485 kts 118°
2026-04-26 02:45 12.30681 84.28833 36916 ft 485 kts 118°
2026-04-26 02:46 12.27689 84.35011 36916 ft 485 kts 118°
2026-04-26 02:46 12.24695 84.41186 36915 ft 485 kts 118°
2026-04-26 02:47 12.21701 84.47361 36916 ft 484 kts 118°
2026-04-26 02:47 12.18706 84.53531 36916 ft 484 kts 118°
2026-04-26 02:48 12.15713 84.59692 36917 ft 484 kts 118°
2026-04-26 02:48 12.12732 84.65827 36918 ft 484 kts 118°
2026-04-26 02:49 12.09739 84.71979 36918 ft 484 kts 118°
2026-04-26 02:49 12.06741 84.78141 36920 ft 483 kts 118°
2026-04-26 02:50 12.03747 84.84288 36917 ft 483 kts 118°
2026-04-26 02:50 12.00752 84.90433 36917 ft 483 kts 118°
2026-04-26 02:51 11.97759 84.96571 36920 ft 483 kts 118°
2026-04-26 02:51 11.94781 85.02673 36921 ft 482 kts 118°
2026-04-26 02:52 11.91788 85.08802 36920 ft 482 kts 118°
2026-04-26 02:52 11.88796 85.14926 36919 ft 482 kts 118°
2026-04-26 02:53 11.85801 85.21051 36920 ft 481 kts 118°
2026-04-26 02:53 11.82807 85.27169 36923 ft 481 kts 118°
2026-04-26 02:54 11.79815 85.33281 36918 ft 481 kts 118°
2026-04-26 02:54 11.76822 85.39390 36920 ft 481 kts 118°
2026-04-26 02:55 11.73853 85.45446 36920 ft 481 kts 118°
2026-04-26 02:55 11.70862 85.51543 36922 ft 480 kts 118°
2026-04-26 02:56 11.67870 85.57638 36920 ft 480 kts 118°
2026-04-26 02:56 11.64875 85.63735 36918 ft 480 kts 118°
2026-04-26 02:57 11.61882 85.69824 36920 ft 480 kts 118°
2026-04-26 02:57 11.58886 85.75916 36923 ft 480 kts 118°
2026-04-26 02:58 11.55882 85.82019 36926 ft 480 kts 118°
2026-04-26 02:58 11.52882 85.88111 36924 ft 480 kts 118°
2026-04-26 02:59 11.49902 85.94160 36920 ft 480 kts 118°
2026-04-26 02:59 11.46902 86.00243 36919 ft 480 kts 118°
2026-04-26 03:00 11.43901 86.06325 36922 ft 480 kts 118°
2026-04-26 03:00 11.40899 86.12406 36920 ft 479 kts 118°
2026-04-26 03:01 11.37899 86.18480 36918 ft 479 kts 118°
2026-04-26 03:01 11.34919 86.24507 36922 ft 479 kts 118°
2026-04-26 03:02 11.31923 86.30565 36919 ft 478 kts 118°
2026-04-26 03:02 11.28925 86.36621 36921 ft 478 kts 118°
2026-04-26 03:03 11.25934 86.42661 36919 ft 477 kts 118°
2026-04-26 03:03 11.22943 86.48698 36919 ft 477 kts 118°
2026-04-26 03:04 11.19970 86.54693 36912 ft 476 kts 118°
2026-04-26 03:04 11.16985 86.60709 36921 ft 476 kts 118°
2026-04-26 03:05 11.14002 86.66717 36924 ft 475 kts 118°
2026-04-26 03:05 11.11018 86.72723 36920 ft 475 kts 118°
2026-04-26 03:06 11.08035 86.78726 36919 ft 475 kts 118°
2026-04-26 03:06 11.05052 86.84723 36915 ft 474 kts 118°
2026-04-26 03:07 11.02075 86.90706 36920 ft 474 kts 118°
2026-04-26 03:07 10.99096 86.96689 36914 ft 473 kts 118°
2026-04-26 03:08 10.96117 87.02667 36915 ft 473 kts 118°
2026-04-26 03:08 10.93162 87.08594 36913 ft 472 kts 118°
2026-04-26 03:09 10.90189 87.14555 36910 ft 472 kts 118°
2026-04-26 03:09 10.87219 87.20505 36914 ft 471 kts 118°
2026-04-26 03:10 10.84247 87.26455 36912 ft 471 kts 118°
2026-04-26 03:10 10.81279 87.32395 36913 ft 470 kts 118°
2026-04-26 03:11 10.78330 87.38294 36914 ft 470 kts 118°
2026-04-26 03:11 10.75365 87.44219 36913 ft 470 kts 118°
2026-04-26 03:12 10.72400 87.50143 36913 ft 470 kts 118°
2026-04-26 03:12 10.69437 87.56059 36913 ft 470 kts 118°
2026-04-26 03:13 10.66968 87.60985 36912 ft 470 kts 118°
2026-04-26 03:13 10.64003 87.66899 36912 ft 470 kts 118°
2026-04-26 03:14 10.61035 87.72816 36912 ft 469 kts 118°
2026-04-26 03:14 10.58063 87.78737 36913 ft 469 kts 118°
2026-04-26 03:15 10.55091 87.84654 36912 ft 469 kts 118°
2026-04-26 03:15 10.52124 87.90560 36912 ft 469 kts 118°
2026-04-26 03:16 10.49170 87.96434 36912 ft 469 kts 118°
2026-04-26 03:16 10.46199 88.02341 36912 ft 469 kts 118°
2026-04-26 03:17 10.43229 88.08241 36914 ft 469 kts 118°
2026-04-26 03:17 10.40259 88.14137 36912 ft 469 kts 118°
2026-04-26 03:18 10.37285 88.20040 36911 ft 469 kts 118°
2026-04-26 03:18 10.34332 88.25898 36914 ft 469 kts 118°
2026-04-26 03:19 10.31359 88.31791 36913 ft 468 kts 118°
2026-04-26 03:19 10.28388 88.37678 36913 ft 468 kts 118°
2026-04-26 03:20 10.25415 88.43567 36913 ft 468 kts 118°
2026-04-26 03:20 10.22443 88.49450 36913 ft 468 kts 118°
2026-04-26 03:21 10.19519 88.55297 36911 ft 467 kts 116°
2026-04-26 03:21 10.16769 88.61272 36912 ft 467 kts 115°
2026-04-26 03:22 10.14071 88.67270 36912 ft 467 kts 115°
2026-04-26 03:22 10.11355 88.73253 36914 ft 467 kts 115°
2026-04-26 03:23 10.08615 88.79237 36913 ft 466 kts 115°
2026-04-26 03:23 10.05877 88.85198 36913 ft 466 kts 115°
2026-04-26 03:24 10.03135 88.91165 36916 ft 466 kts 115°
2026-04-26 03:24 10.00394 88.97126 36915 ft 466 kts 115°
2026-04-26 03:25 9.97674 89.03040 36913 ft 466 kts 115°
2026-04-26 03:25 9.94930 89.09003 36914 ft 466 kts 115°
2026-04-26 03:26 9.92187 89.14961 36913 ft 466 kts 115°
2026-04-26 03:26 9.89441 89.20921 36912 ft 466 kts 115°
2026-04-26 03:27 9.86698 89.26872 36913 ft 466 kts 115°
2026-04-26 03:27 9.83952 89.32826 36911 ft 466 kts 115°
2026-04-26 03:28 9.81207 89.38776 36911 ft 466 kts 115°
2026-04-26 03:28 9.78460 89.44727 36914 ft 466 kts 115°
2026-04-26 03:29 9.75710 89.50680 36913 ft 466 kts 115°
2026-04-26 03:29 9.72960 89.56630 36916 ft 466 kts 115°
2026-04-26 03:30 9.70210 89.62576 36912 ft 466 kts 115°
2026-04-26 03:30 9.67456 89.68528 36912 ft 466 kts 115°
2026-04-26 03:31 9.64704 89.74475 36911 ft 466 kts 115°
2026-04-26 03:31 9.61951 89.80417 36912 ft 466 kts 115°
2026-04-26 03:32 9.59198 89.86359 36913 ft 466 kts 115°
2026-04-26 03:32 9.56457 89.92271 36913 ft 466 kts 115°
2026-04-26 03:33 9.53698 89.98218 36911 ft 466 kts 115°
2026-04-26 03:33 9.50937 90.04166 36912 ft 467 kts 115°
2026-04-26 03:34 9.48170 90.10124 36912 ft 467 kts 115°
2026-04-26 03:34 9.45406 90.16074 36911 ft 467 kts 115°
2026-04-26 03:35 9.42636 90.22033 36914 ft 467 kts 115°
2026-04-26 03:35 9.39870 90.27980 36913 ft 467 kts 115°
2026-04-26 03:36 9.37119 90.33890 36911 ft 467 kts 115°
2026-04-26 03:36 9.34352 90.39834 36912 ft 467 kts 115°
2026-04-26 03:37 9.31578 90.45789 36913 ft 467 kts 115°
2026-04-26 03:37 9.28805 90.51737 36911 ft 467 kts 115°
2026-04-26 03:38 9.26032 90.57685 36914 ft 467 kts 115°
2026-04-26 03:38 9.23257 90.63632 36910 ft 467 kts 115°
2026-04-26 03:39 9.20494 90.69552 36912 ft 467 kts 115°
2026-04-26 03:39 9.17719 90.75494 36912 ft 467 kts 115°
2026-04-26 03:40 9.14941 90.81438 36912 ft 467 kts 115°
2026-04-26 03:40 9.12165 90.87377 36914 ft 467 kts 115°
2026-04-26 03:41 9.09379 90.93334 36910 ft 467 kts 115°
2026-04-26 03:41 9.06595 90.99281 36908 ft 468 kts 115°
2026-04-26 03:42 9.03826 91.05195 36910 ft 468 kts 115°
2026-04-26 03:42 9.01036 91.11153 36911 ft 468 kts 115°
2026-04-26 03:43 8.98247 91.17102 36910 ft 468 kts 115°
2026-04-26 03:43 8.95456 91.23055 36915 ft 468 kts 115°
2026-04-26 03:44 8.92666 91.29002 36913 ft 468 kts 115°
2026-04-26 03:44 8.89889 91.34919 36907 ft 468 kts 115°
2026-04-26 03:45 8.87093 91.40874 36909 ft 469 kts 115°
2026-04-26 03:45 8.84293 91.46832 36911 ft 469 kts 115°
2026-04-26 03:46 8.81493 91.52790 36913 ft 469 kts 115°
2026-04-26 03:47 8.77291 91.61724 36913 ft 469 kts 115°
2026-04-26 03:47 8.74488 91.67680 36910 ft 469 kts 115°
2026-04-26 03:48 8.71685 91.73633 36909 ft 469 kts 115°
2026-04-26 03:48 8.68881 91.79586 36910 ft 469 kts 115°
2026-04-26 03:49 8.66077 91.85537 36911 ft 469 kts 115°
2026-04-26 03:49 8.63290 91.91450 36912 ft 468 kts 115°
2026-04-26 03:50 8.60489 91.97389 36911 ft 468 kts 115°
2026-04-26 03:50 8.57725 92.03355 36911 ft 468 kts 114°
2026-04-26 03:51 8.55076 92.09366 36913 ft 468 kts 114°
2026-04-26 03:51 8.52439 92.15379 36911 ft 468 kts 114°
2026-04-26 03:52 8.49786 92.21389 36916 ft 468 kts 114°
2026-04-26 03:52 8.47143 92.27348 36912 ft 468 kts 114°
2026-04-26 03:53 8.44478 92.33351 36914 ft 468 kts 114°
2026-04-26 03:53 8.41812 92.39355 36916 ft 468 kts 114°
2026-04-26 03:54 8.39145 92.45359 36915 ft 469 kts 114°
2026-04-26 03:54 8.36476 92.51363 36912 ft 469 kts 114°
2026-04-26 03:55 8.33803 92.57376 36912 ft 469 kts 114°
2026-04-26 03:55 8.31131 92.63382 36915 ft 469 kts 114°
2026-04-26 03:56 8.28457 92.69391 36912 ft 469 kts 114°
2026-04-26 03:56 8.25783 92.75395 36915 ft 469 kts 114°
2026-04-26 03:57 8.23124 92.81365 36915 ft 469 kts 114°
2026-04-26 03:57 8.20448 92.87369 36913 ft 469 kts 114°
2026-04-26 03:58 8.17770 92.93376 36914 ft 469 kts 114°
2026-04-26 03:58 8.15091 92.99382 36914 ft 469 kts 114°
2026-04-26 03:59 8.12409 93.05392 36911 ft 469 kts 114°
2026-04-26 03:59 8.09727 93.11398 36915 ft 469 kts 114°
2026-04-26 04:00 8.07039 93.17416 36912 ft 470 kts 114°
2026-04-26 04:00 8.04368 93.23393 36914 ft 470 kts 114°
2026-04-26 04:01 8.01682 93.29401 36912 ft 470 kts 114°
2026-04-26 04:01 7.99432 93.34432 36915 ft 470 kts 114°
2026-04-26 04:02 7.96742 93.40446 36912 ft 470 kts 114°
2026-04-26 04:02 7.94145 93.46442 36905 ft 470 kts 108°
2026-04-26 04:03 7.92865 93.52877 36919 ft 469 kts 94°
2026-04-26 04:03 7.93026 93.59455 36916 ft 469 kts 86°
2026-04-26 04:04 7.93481 93.66019 36912 ft 469 kts 86°
2026-04-26 04:04 7.93907 93.72588 36913 ft 469 kts 86°
2026-04-26 04:05 7.94292 93.79160 36914 ft 469 kts 87°
2026-04-26 04:05 7.94663 93.85735 36912 ft 470 kts 87°
2026-04-26 04:06 7.95034 93.92313 36909 ft 470 kts 87°
2026-04-26 04:06 7.95405 93.98899 36905 ft 469 kts 87°
2026-04-26 04:07 7.95774 94.05435 36912 ft 469 kts 87°
2026-04-26 04:07 7.96143 94.11999 36905 ft 469 kts 87°
2026-04-26 04:08 7.96511 94.18565 36907 ft 469 kts 87°
2026-04-26 04:08 7.96879 94.25139 36907 ft 468 kts 87°
2026-04-26 04:09 7.97244 94.31696 36905 ft 468 kts 87°
2026-04-26 04:09 7.97609 94.38259 36906 ft 468 kts 87°
2026-04-26 04:10 7.97935 94.44809 36909 ft 468 kts 88°
2026-04-26 04:10 7.98097 94.51326 36906 ft 467 kts 89°
2026-04-26 04:11 7.98233 94.57881 36907 ft 467 kts 89°
2026-04-26 04:11 7.98387 94.64434 36904 ft 467 kts 89°
2026-04-26 04:12 7.98552 94.70988 36904 ft 467 kts 89°
2026-04-26 04:12 7.98720 94.77537 36906 ft 467 kts 89°
2026-04-26 04:13 7.98885 94.84086 36905 ft 467 kts 89°
2026-04-26 04:13 7.99050 94.90642 36906 ft 467 kts 89°
2026-04-26 04:14 7.99212 94.97153 36907 ft 467 kts 89°
2026-04-26 04:14 7.99374 95.03723 36907 ft 468 kts 89°
2026-04-26 04:15 7.99535 95.10277 36902 ft 468 kts 89°
2026-04-26 04:15 7.99695 95.16841 36905 ft 468 kts 89°
2026-04-26 04:16 7.99854 95.23405 36905 ft 468 kts 89°
2026-04-26 04:16 8.00012 95.29976 36903 ft 468 kts 89°
2026-04-26 04:17 8.00168 95.36504 36903 ft 468 kts 89°
2026-04-26 04:17 8.00325 95.43068 36907 ft 468 kts 89°
2026-04-26 04:18 8.00480 95.49634 36909 ft 468 kts 89°
2026-04-26 04:18 8.00667 95.56195 36907 ft 468 kts 88°
2026-04-26 04:19 8.00892 95.62757 36903 ft 468 kts 88°
2026-04-26 04:19 8.01115 95.69321 36905 ft 468 kts 88°
2026-04-26 04:20 8.01332 95.75892 36907 ft 468 kts 88°
2026-04-26 04:20 8.01543 95.82417 36903 ft 468 kts 88°
2026-04-26 04:21 8.01754 95.88992 36904 ft 468 kts 88°
2026-04-26 04:21 8.01964 95.95560 36909 ft 468 kts 88°
2026-04-26 04:22 8.02174 96.02124 36907 ft 468 kts 88°
2026-04-26 04:22 8.02382 96.08689 36907 ft 468 kts 88°
2026-04-26 04:23 8.02588 96.15211 36904 ft 468 kts 88°
2026-04-26 04:23 8.02794 96.21779 36903 ft 468 kts 88°
2026-04-26 04:24 8.02999 96.28335 36909 ft 468 kts 88°
2026-04-26 04:24 8.03203 96.34897 36904 ft 467 kts 88°
2026-04-26 04:25 8.03405 96.41453 36905 ft 467 kts 88°
2026-04-26 04:25 8.03607 96.48012 36906 ft 467 kts 88°
2026-04-26 04:26 8.03807 96.54527 36906 ft 467 kts 88°
2026-04-26 04:26 8.04007 96.61100 36908 ft 468 kts 88°
2026-04-26 04:27 8.04206 96.67666 36903 ft 468 kts 88°
2026-04-26 04:27 8.04304 96.70935 36644 ft 464 kts 88°
2026-04-26 04:27 8.04401 96.74140 36178 ft 460 kts 88°
2026-04-26 04:27 8.04497 96.77357 35672 ft 457 kts 88°
2026-04-26 04:28 8.04593 96.80562 35158 ft 455 kts 88°
2026-04-26 04:28 8.04688 96.83748 34683 ft 452 kts 88°
2026-04-26 04:28 8.04782 96.86905 34251 ft 448 kts 88°
2026-04-26 04:28 8.04875 96.90038 33821 ft 444 kts 88°
2026-04-26 04:29 8.04967 96.93139 33309 ft 441 kts 88°
2026-04-26 04:29 8.05059 96.96242 32720 ft 441 kts 88°
2026-04-26 04:29 8.05150 96.99341 31989 ft 444 kts 88°
2026-04-26 04:29 8.05243 97.02464 31290 ft 448 kts 88°
2026-04-26 04:30 8.05337 97.05667 30626 ft 466 kts 87°
2026-04-26 04:30 8.05433 97.08935 29957 ft 473 kts 87°
2026-04-26 04:30 8.05531 97.12299 29175 ft 473 kts 87°
2026-04-26 04:30 8.05626 97.15568 28419 ft 471 kts 87°
2026-04-26 04:31 8.05721 97.18859 27676 ft 469 kts 88°
2026-04-26 04:31 8.05817 97.22137 26951 ft 466 kts 87°
2026-04-26 04:31 8.05960 97.25392 26243 ft 463 kts 86°
2026-04-26 04:31 8.06141 97.28627 25553 ft 460 kts 86°
2026-04-26 04:32 8.06332 97.31852 24875 ft 458 kts 86°
2026-04-26 04:32 8.06519 97.35049 24216 ft 455 kts 86°
2026-04-26 04:32 8.06699 97.38237 23568 ft 452 kts 86°
2026-04-26 04:32 8.06872 97.41400 22813 ft 449 kts 87°
2026-04-26 04:33 8.07041 97.44537 22067 ft 447 kts 87°
2026-04-26 04:33 8.07208 97.47659 21329 ft 444 kts 87°
2026-04-26 04:33 8.07374 97.50765 20544 ft 442 kts 87°
2026-04-26 04:33 8.07537 97.53817 19797 ft 440 kts 87°
2026-04-26 04:34 8.07700 97.56891 19043 ft 431 kts 87°
2026-04-26 04:34 8.07853 97.59839 18292 ft 411 kts 87°
2026-04-26 04:34 8.07998 97.62667 17463 ft 396 kts 87°
2026-04-26 04:34 8.08137 97.65395 16640 ft 383 kts 87°
2026-04-26 04:35 8.08273 97.68040 15837 ft 372 kts 87°
2026-04-26 04:35 8.08405 97.70620 15066 ft 364 kts 87°
2026-04-26 04:35 8.08535 97.73160 14314 ft 361 kts 87°
2026-04-26 04:35 8.08665 97.75697 13508 ft 362 kts 87°
2026-04-26 04:36 8.08794 97.78226 12647 ft 360 kts 87°
2026-04-26 04:36 8.08906 97.80738 11796 ft 356 kts 90°
2026-04-26 04:36 8.08772 97.83220 10974 ft 353 kts 96°
2026-04-26 04:36 8.08493 97.85666 10173 ft 349 kts 97°
2026-04-26 04:37 8.08222 97.88093 9336 ft 345 kts 96°
2026-04-26 04:37 8.07988 97.90483 8476 ft 340 kts 96°
2026-04-26 04:37 8.07772 97.92838 7640 ft 334 kts 95°
2026-04-26 04:37 8.07711 97.94747 6959 ft 330 kts 88°
2026-04-26 04:38 8.07935 97.97060 6138 ft 324 kts 84°
2026-04-26 04:38 8.08203 97.99265 5307 ft 321 kts 84°
2026-04-26 04:38 8.08448 98.01491 4563 ft 317 kts 85°
2026-04-26 04:38 8.08676 98.03704 4280 ft 317 kts 85°
2026-04-26 04:39 8.08891 98.05926 4097 ft 321 kts 85°
2026-04-26 04:39 8.09104 98.08169 3746 ft 321 kts 85°
2026-04-26 04:39 8.09317 98.10411 3380 ft 319 kts 85°
2026-04-26 04:39 8.09528 98.12645 3038 ft 320 kts 85°
2026-04-26 04:40 8.09738 98.14869 2672 ft 316 kts 85°
2026-04-26 04:40 8.09941 98.17012 2287 ft 296 kts 85°
2026-04-26 04:40 8.10129 98.18995 1883 ft 272 kts 85°
2026-04-26 04:40 8.10303 98.20828 1511 ft 253 kts 85°
2026-04-26 04:41 8.10463 98.22524 1131 ft 239 kts 86°
2026-04-26 04:41 8.10615 98.24129 961 ft 218 kts 86°
2026-04-26 04:41 8.10712 98.25165 967 ft 196 kts 86°
2026-04-26 04:41 8.10835 98.26442 942 ft 186 kts 87°
2026-04-26 04:42 8.10951 98.27740 824 ft 178 kts 84°
2026-04-26 04:42 8.11052 98.28908 530 ft 158 kts 85°
2026-04-26 04:42 8.11155 98.29931 225 ft 131 kts 85°
2026-04-26 04:42 8.11233 98.30800 201 ft 136 kts 85°
2026-04-26 04:43 8.11329 98.31847 980 ft 166 kts 87°
2026-04-26 04:43 8.11454 98.33141 1711 ft 199 kts 83°
2026-04-26 04:43 8.11661 98.34618 2492 ft 212 kts 84°
2026-04-26 04:43 8.11839 98.36177 3331 ft 234 kts 84°
2026-04-26 04:44 8.12335 98.37764 3802 ft 240 kts 61°
2026-04-26 04:44 8.13465 98.38997 4787 ft 239 kts 39°
2026-04-26 04:44 8.14881 98.40042 5421 ft 260 kts 38°
2026-04-26 04:44 8.16324 98.41118 5348 ft 262 kts 42°
2026-04-26 04:45 8.17863 98.42085 5099 ft 262 kts 20°
2026-04-26 04:45 8.19659 98.42314 4838 ft 260 kts 355°
2026-04-26 04:45 8.21343 98.41695 4599 ft 261 kts 325°
2026-04-26 04:45 8.22554 98.40305 4334 ft 271 kts 296°
2026-04-26 04:46 8.23038 98.38493 4167 ft 266 kts 276°
2026-04-26 04:46 8.23199 98.36610 3916 ft 267 kts 272°
2026-04-26 04:46 8.23252 98.34750 3657 ft 262 kts 262°
2026-04-26 04:46 8.22654 98.33065 3408 ft 257 kts 225°
2026-04-26 04:47 8.21209 98.32126 3258 ft 252 kts 191°
2026-04-26 04:47 8.19466 98.31986 2975 ft 251 kts 188°
2026-04-26 04:47 8.17829 98.31253 2737 ft 266 kts 216°
2026-04-26 04:47 8.16685 98.29783 2550 ft 270 kts 245°
2026-04-26 04:48 8.15854 98.26166 2323 ft 258 kts 259°
2026-04-26 04:48 8.15673 98.24981 2142 ft 259 kts 262°
2026-04-26 04:48 8.15515 98.23185 1991 ft 251 kts 264°
2026-04-26 04:49 8.15389 98.21452 1881 ft 243 kts 265°
2026-04-26 04:49 8.15271 98.19783 1793 ft 234 kts 264°
2026-04-26 04:49 8.15125 98.17668 1663 ft 221 kts 263°
2026-04-26 04:49 8.14920 98.16669 1521 ft 212 kts 242°
2026-04-26 04:50 8.14032 98.15600 1270 ft 199 kts 206°
2026-04-26 04:50 8.12747 98.15303 1017 ft 185 kts 172°
2026-04-26 04:50 8.11568 98.15687 682 ft 173 kts 139°
2026-04-26 04:50 8.10882 98.16532 680 ft 137 kts 120°
2026-04-26 04:51 8.10445 98.17276 522 ft 114 kts 118°
2026-04-26 04:51 8.10175 98.17887 11 ft 0 kts 105°